Location: Bethera
(33.2010°N, 79.7880°W)
Time: 15:46:00
(UTC-04:00)

Daily predictions for brighter satellites

Satellite Brightness Start Highest point End
(mag) Time Altitude Azimuth Time Altitude Azimuth Time Altitude Azimuth
Resurs 1-3 3.8 20:12:09 10° SSE 20:16:24 52° ENE 20:20:39 10° N
Cosmos 1602 4.0 20:14:09 10° S 20:18:05 78° W 20:22:04 10° N
Cosmos 1455 Rocket 4.1 20:16:20 10° SE 20:19:52 25° E 20:23:26 10° NE
Spot 2 Rocket 3.5 20:17:26 10° SSE 20:22:32 86° ENE 20:27:38 10° NNW
Cosmos 1025 Rocket 3.2 20:19:07 10° N 20:23:21 50° E 20:27:33 10° SSE
Cosmos 2219 3.2 20:18:07 10° NNW 20:23:43 67° ENE 20:29:18 10° SSE
Cosmos 1570 Rocket 4.4 20:20:45 10° S 20:25:44 43° ESE 20:30:43 10° NNE
Resurs 01 Rocket 1.8 20:26:32 10° S 20:30:56 77° WSW 20:35:23 10° NNW
Cosmos 1934 Rocket 4.1 20:25:17 10° SSE 20:31:07 51° E 20:37:04 10° NNE
Cosmos 1315 Rocket 3.4 20:29:50 10° SSW 20:33:46 63° W 20:37:46 10° N
Meteor 2-4 Rocket 3.9 20:30:21 10° N 20:36:10 63° E 20:42:01 10° SSE
Cosmos 2278 3.9 20:31:49 10° S 20:37:12 47° ESE 20:42:38 10° NNE
Cosmos 1697 Rocket 4.2 20:34:51 10° SE 20:37:53 15° E 20:40:56 10° ENE
EP 1 4.4 20:36:33 10° SSW 20:39:05 44° ESE 20:41:28 10° NE
Tiangong 1 3.5 20:38:22 10° WNW 20:40:44 20° NNW 20:43:06 10° NE
NOSS 7 (E) 4.3 20:40:16 10° SSW 20:43:58 77° ESE 20:47:18 10° NNE
USA 186 2.3 20:43:59 13° SE 20:46:30 37° ENE 20:49:21 10° N
Myojo/LAPS 3.6 20:44:31 10° WSW 20:47:01 29° S 20:48:07 20° SE
H-2A R/B 2.9 20:44:30 10° SSE 20:48:13 53° ENE 20:52:02 10° N
CZ-4B DEB 2.9 20:46:26 10° S 20:49:42 77° W 20:52:58 10° NNW
Cosmos 2369 3.8 20:44:35 10° S 20:50:04 55° ESE 20:55:37 10° NNE
OTV 4 2.0 20:47:31 10° WNW 20:50:11 30° N 20:52:22 13° ENE
Meteor 1-23 Rocket 4.2 20:47:34 10° N 20:53:14 83° E 20:58:57 10° S
Cosmos 1544 Rocket 3.6 20:48:59 10° S 20:53:20 86° W 20:57:44 10° N
Delta 2 Rocket 4.1 20:48:01 10° W 20:53:40 69° N 20:57:38 17° E
NOSS 7 (H) 4.4 20:50:46 10° SSW 20:54:04 49° ESE 20:57:14 10° NE
ATLAS 3B CENTAUR R/B 1.5 20:53:53 10° SW 20:55:17 18° S 20:55:17 18° S
Iridium 4 Rocket 4.3 20:53:21 10° NNE 20:57:40 28° E 20:59:35 21° ESE
OAO 2 Rocket 3.3 20:55:09 10° WSW 21:00:09 72° SSE 21:03:59 18° E
CZ-2D R/B 3.3 20:59:18 10° S 21:03:09 84° WSW 21:07:02 10° NNW
Cosmos 968 Rocket 4.3 21:00:25 10° NNW 21:05:23 50° WSW 21:10:17 10° S
ERS-1 Rocket 3.6 21:07:32 24° ESE 21:09:49 37° ENE 21:14:25 10° N
GOES 2 Rocket 4.2 21:06:47 10° WSW 21:10:26 28° SSW 21:12:13 22° SSE
Hubble Space Telescope 1.6 21:07:05 10° WSW 21:10:56 37° S 21:12:19 28° SSE
SL-24 R/B - RUBIN 2 4.4 21:07:15 10° S 21:12:37 50° ESE 21:18:39 10° NE
Centaur AC-125 4.4 20:38:49 10° WSW 21:12:40 60° S 21:16:19 26° ESE
Cosmos 1605 Rocket 4.0 21:07:39 10° S 21:14:01 82° E 21:20:21 10° N
BREEZE-M DEB (TANK) 4.3 21:06:57 10° NW 21:15:16 35° WSW 21:17:55 14° S
Cosmos 1346 Rocket 2.7 21:15:29 10° N 21:19:26 87° W 21:21:50 23° S
YAOGAN 11 4.1 21:26:25 37° SE 21:28:06 67° ENE 21:32:35 10° N
Cosmos 2227 Rocket 2.2 21:24:34 10° NNW 21:30:12 65° ENE 21:32:23 37° SE
ALOS 3.6 21:26:20 10° SSW 21:30:39 38° W 21:35:00 10° NNW
Cosmos 468 Rocket 4.1 21:29:33 33° SSE 21:31:19 47° ESE 21:36:13 10° NNE
Cosmos 1500 3.6 21:34:20 44° NE 21:34:20 44° NE 21:37:14 10° NNE
BREEZE-M DEB (TANK) 4.5 21:17:14 10° WSW 21:37:55 76° NW 21:42:56 11° NE
Cosmos 1814 Rocket 4.2 21:37:53 46° ESE 21:38:17 47° ESE 21:43:23 10° NNE
Cosmos 1656 3.5 21:32:58 10° SSW 21:38:36 81° ESE 21:44:12 10° NNE
OE (NEXTSAT) 4.5 21:37:09 10° WNW 21:40:31 71° WSW 21:40:31 71° WSW
Cosmos 2082 3.6 21:37:12 10° NNW 21:42:50 79° ENE 21:44:33 46° SSE
Cosmos 2297 Rocket 2.2 21:40:28 10° NNW 21:46:05 62° ENE 21:47:09 52° ESE
H-2A R/B 2.7 21:49:23 39° NE 21:49:23 39° NE 21:52:24 10° N
Lacrosse 5 3.7 21:47:45 10° N 21:51:05 17° NE 21:51:36 17° NE
SPOT 5 3.3 21:52:31 46° ENE 21:52:31 46° ENE 21:57:01 10° N
deb Chang Zheng 4 3.5 21:52:34 10° NNE 21:57:02 90° WNW 21:57:05 88° SSW
Cosmos 1626 Rocket 3.9 21:53:17 10° NNW 21:57:38 60° W 21:58:23 51° SW
Cosmos 1975 4.2 21:55:16 14° SW 21:58:26 38° W 22:02:17 10° N
Cosmos 1515 4.4 21:56:10 10° N 21:59:10 51° NNW 21:59:10 51° NNW
Cosmos 1459 Rocket 3.8 21:59:01 50° SSE 22:00:41 76° E 22:06:45 10° N
Cosmos 2298 Rocket 4.1 21:55:50 10° N 22:00:55 60° ENE 22:00:55 60° ENE
Cosmos 1602 Rocket 4.4 22:01:16 10° NNW 22:05:34 48° W 22:06:22 42° SW
NOSS 3-4 (A) 4.2 22:00:49 10° NW 22:07:51 60° WSW 22:10:47 37° S
NOSS 3-4 (C) 4.2 22:00:56 10° NW 22:07:58 61° WSW 22:10:52 38° S
H-2A R/B 4.2 22:10:12 13° NE 22:10:12 13° NE 22:11:06 10° NNE
Nimbus 7 Rocket 4.5 22:02:49 10° NNE 22:08:55 81° WNW 22:12:29 26° SSW
Envisat 3.2 22:11:14 60° SW 22:11:49 65° WSW 22:16:53 10° NNW
Cosmos 2098 Rocket 4.5 22:14:27 49° ENE 22:14:27 49° ENE 22:19:57 10° NNE
Cosmos 1461 4.0 22:10:51 10° NW 22:13:43 39° WNW 22:13:43 39° WNW
Lacrosse 5 rocket 3.1 22:11:40 10° NNW 22:13:22 25° NNW 22:13:22 25° NNW
MetOp-A 4.2 22:15:54 66° NNE 22:15:54 66° NNE 22:20:41 10° N
Cosmos 1066 Rocket 4.2 22:09:57 10° N 22:15:38 82° W 22:16:06 75° SSW
Tiangong 1 4.3 22:16:16 10° NNW 22:16:48 12° NNW 22:16:48 12° NNW
Cosmos 1697 Rocket 3.2 22:15:42 10° SSW 22:21:16 58° WNW 22:26:50 10° NNE
Cosmos 1802 Rocket 4.0 22:21:00 61° SSW 22:22:12 84° W 22:28:40 10° N
Cosmos 1937 Rocket 4.1 22:17:04 10° N 22:21:02 47° NNE 22:21:02 47° NNE
SPOT 1/Viking Rocket 4.5 22:28:06 40° NNE 22:28:06 40° NNE 22:31:36 10° N
OTV 4 4.1 22:23:51 10° WNW 22:23:53 10° WNW 22:23:53 10° WNW
Cosmos 2150 Rocket 4.4 22:23:08 10° NNW 22:27:17 59° NNW 22:27:17 59° NNW
DELTA 2 R/B (1) 4.0 22:24:48 10° WNW 22:29:48 56° N 22:29:48 56° N
ASTEX 1 4.2 22:29:25 10° N 22:33:04 47° NNW 22:33:04 47° NNW
Terra 4.3 22:40:15 14° NNE 22:40:15 14° NNE 22:41:01 10° NNE
Cosmos 1980 Rocket 2.9 22:44:07 51° NNW 22:44:07 51° NNW 22:48:31 10° NNE
Cosmos 2016 Rocket 4.1 22:43:28 67° WNW 22:43:28 67° WNW 22:49:28 10° N
ARGOS 4.1 22:49:32 41° N 22:49:32 41° N 22:53:00 10° NNW
Cosmos 2263 Rocket 4.5 23:13:21 10° N 23:14:41 15° NNE 23:14:41 15° NNE
USA 215 4.0 23:29:23 46° NNW 23:29:23 46° NNW 23:33:54 10° NW
Milstar 3 Cent rocket 4.0 23:13:00 10° W 23:26:27 54° SW 23:26:27 54° SW
Lacrosse 5 4.3 23:29:28 10° NW 23:30:48 18° NW 23:30:48 18° NW
